Regional Weather Roundup
Issued by NWS Sterling, VA

Home | Current Version | Previous Version | Text Only | Print | Product List | Glossary Off
Versions: 1 2 3 4 5 6 7 8 9 10 11 12 13 14 15 16 17 18 19 20 21 22 23 24 25 26 27 28 29 30 31 32 33 34 35 36 37 38 39 40 41 42 43 44 45 46 47 48 49 50

000
ASUS41 KLWX 210110
RWRLWX

REGIONAL WEATHER ROUNDUP
NATIONAL WEATHER SERVICE BALTIMORE MD/WASHINGTON DC
900 PM EDT WED AUG 20 2014

Note: "FAIR" indicates few or no clouds below 12,000 feet
with no significant weather and/or obstructions to visibility.
 TC=TEMPERATURE CELSIUS

 * =Non NWS site. Station does not report precipitation (e.g. rain,
    snow, etc.), thunder, or fog.

DCZ001-MDZ009-015-VAZ040>042-051-053>054-210200-
WASHINGTON METRO
  /KDAA//-FT BELVOIR

CITY           SKY/WX    TMP DP  RH WIND       PRES   REMARKS
WASHINGTON NAT CLOUDY    76  62  62 NE3       29.98R
DULLES         MOCLDY    68  65  90 W6        29.99R
ANDREWS AFB    CLOUDY    71  67  85 NE5       29.98R
QUANTICO       CLOUDY    72  69  90 NW7       29.97S
COLLEGE PARK*  CLOUDY    72  72 100 CALM      29.97R
LEESBURG*      MOCLDY    68  68 100 W5        30.00R
MANASSAS*      CLOUDY    70  68  94 CALM      29.98R
GAITHERSBURG*  PTCLDY    68  64  88 CALM      30.03R

$$

MDZ006>007-011-014-210200-
BALTIMORE METRO

CITY           SKY/WX    TMP DP  RH WIND       PRES   REMARKS
BWI AIRPORT    CLOUDY    72  68  87 CALM      29.97S
MD SCIENCE CTR   N/A     77  64  64 MISG      29.98S
MARTIN STATE   MOCLDY    79  70  73 S5        29.99S
ANNAPOLIS        N/A     77  65  66 S7        29.97S
FORT MEADE*    CLOUDY    68  64  88 CALM      30.00R

$$

MDZ012-015-019>023-210200-
MARYLAND EASTERN SHORE

CITY           SKY/WX    TMP DP  RH WIND       PRES   REMARKS
OCEAN CITY     CLEAR     72  64  76 SE8       30.00F
SALISBURY      PTCLDY    73  64  73 SE12      29.96F
BAY BRIDGE AP*   N/A     77  66  69 SE5       29.97S
CAMBRIDGE*     CLOUDY    77  61  57 E9        29.96R
EASTON*        CLOUDY    77  66  69 SE3       30.00F

$$

MDZ017>025-210200-
SOUTHERN MARYLAND

CITY           SKY/WX    TMP DP  RH WIND       PRES   REMARKS
PATUXENT RIVER PTCLDY    76  62  62 SE10      29.94F
ST INIGOES     MOCLDY    75  62  64 SE7       29.94F
LEONARDTOWN*   MOCLDY    73  59  60 SW5       29.99R

$$

MDZ003>005-210200-
NORTH CENTRAL MARYLAND

CITY           SKY/WX    TMP DP  RH WIND       PRES   REMARKS
FREDERICK*     PTCLDY    70  70 100 CALM      30.01S
HAGERSTOWN APT CLOUDY    73  66  78 CALM      30.00R
WESTMINSTER*   PTCLDY    72  66  83 S3        30.00S

$$

MDZ501>502-210200-
WESTERN MARYLAND

CITY           SKY/WX    TMP DP  RH WIND       PRES   REMARKS
OAKLAND*       PTCLDY    64 N/A N/A SW5       30.09R
CUMBERLAND*    CLOUDY    77  68  73 W5        30.02R

$$

VAZ025>031-210200-
SHENANDOAH VALLEY

CITY           SKY/WX    TMP DP  RH WIND       PRES   REMARKS
WINCHESTER*    PTCLDY    70  68  94 NW3       30.00R
STAUNTON*      CLOUDY    71  67  88 S3        30.03R

$$

WVZ021-048>050-054>055-210200-
EASTERN WEST VIRGINIA PANHANDLE

CITY           SKY/WX    TMP DP  RH WIND       PRES   REMARKS
MARTINSBURG    CLEAR     70  66  87 CALM      30.00R
PETERSBURG*    NOT AVBL

$$

VAZ036>039-050-210200-
CENTRAL FOOTHILLS

CITY           SKY/WX    TMP DP  RH WIND       PRES   REMARKS
CHARLOTTESVILL TSTM      69  67  93 CALM      30.00R FOG
ORANGE*        MOCLDY    68  68 100 N3        30.01S

$$

VAZ055>057-210200-
NORTH AND CENTRAL PIEDMONT

CITY           SKY/WX    TMP DP  RH WIND       PRES   REMARKS
FREDERICKSBRG* CLOUDY    71  71 100 N3        29.96R
STAFFORD*      CLOUDY    69  69 100 NW3       30.01S

$$

NCZ024-NYZ072-PAZ021-071-VAZ022-071-210200-
OTHER REGIONAL OBSERVATIONS

CITY           SKY/WX    TMP DP  RH WIND       PRES   REMARKS
NEW YORK CITY  CLEAR     73  58  59 MISG      30.04S
PHILADELPHIA   MOCLDY    75  65  70 SE5       30.00S
PITTSBURGH     PTCLDY    69  68  96 CALM      29.95S
ROANOKE        PTCLDY    80  68  66 VRB5      30.03R THUNDER
RICHMOND       MOCLDY    76  69  79 SE6       29.98R
RALEIGH        PTCLDY    75  66  73 CALM      29.99R

$$

ANZ530>537-210200-
MARINE OBSERVATIONS

STATION/POSITION TIME  TEMP    WIND        PRES
                       AIR SEA DIR/SP/G
                 (UTC) (F)     (DEG/KT/KT) (MB)
THOMAS PT LIGHT  0100   78 78  160/ 12/ 14 1015.4R
BALT KEY BRIDGE  0100   77     130/  4/  5 1014.5F
COVE POINT       0100   78     180/ 17/ 19 1014.0F
LEWISETTA        0100   76 80  180/  9/ 12 1013.7F
SOLOMONS ISLAND  0100      81                N/A
PINEY POINT      0100          180/ 13/ 16   N/A

$$



USA.gov is the U.S. government's official web portal to all federal, state and local government web resources and services.